^^
Station Historical Data
Daily Summary for November 10, 2019 Units:  English    Metric   Both
« Previous Day
Next Day »
Daily Weekly Monthly Yearly Custom
  High: Low: Average:
Temperature: 21.4 °F 2.9 °F 14.3 °F
Dew Point: 14.8 °F -3 °F 9.3 °F
Humidity: 88% 70% 81%
Wind Speed: 22mph 3mph 9.7mph
Wind Gust: 26mph - -
Wind- - West
Pressure: 30.84 in 30.32 in -
Precipitation: 0 in    
Historical Graphs
 
 
Tabular Data for November 10, 2019
Time Temperature Dew Point Pressure Wind Wind Speed Wind Gust Humidity Rainfall Rate (Hourly) solar Conditions
00:00 21.4 °F 14.7 °F 30.32 in North 14 mph 26 mph 75% 0 in 0.00 W/m2
00:05 21.3 °F 14.3 °F 30.32 in NNW 22 mph 26 mph 74% 0 in 0.00 W/m2
00:10 21.2 °F 14.2 °F 30.32 in NNW 13 mph 26 mph 74% 0 in 0.00 W/m2
00:15 21.1 °F 13.8 °F 30.32 in NNW 20 mph 25 mph 73% 0 in 0.00 W/m2
00:20 21 °F 14 °F 30.32 in NW 13 mph 25 mph 74% 0 in 0.00 W/m2
00:25 21 °F 14 °F 30.32 in North 13 mph 25 mph 74% 0 in 0.00 W/m2
00:30 21.1 °F 14.1 °F 30.32 in North 12 mph 25 mph 74% 0 in 0.00 W/m2
00:35 20.9 °F 13.6 °F 30.32 in North 17 mph 21 mph 73% 0 in 0.00 W/m2
00:40 20.8 °F 13.2 °F 30.32 in North 20 mph 21 mph 72% 0 in 0.00 W/m2
00:45 20.6 °F 12.7 °F 30.32 in NNE 13 mph 22 mph 71% 0 in 0.00 W/m2
00:50 20.7 °F 12.8 °F 30.32 in North 12 mph 22 mph 71% 0 in 0.00 W/m2
00:55 20.7 °F 12.8 °F 30.32 in North 19 mph 22 mph 71% 0 in 0.00 W/m2
01:00 20.7 °F 12.5 °F 30.32 in NNW 15 mph 22 mph 70% 0 in 0.00 W/m2
01:05 20.6 °F 12.4 °F 30.32 in NNE 17 mph 22 mph 70% 0 in 0.00 W/m2
01:10 20.7 °F 12.5 °F 30.32 in NNW 14 mph 24 mph 70% 0 in 0.00 W/m2
01:15 20.6 °F 12.4 °F 30.33 in NNW 10 mph 24 mph 70% 0 in 0.00 W/m2
01:20 20.6 °F 12.4 °F 30.33 in North 14 mph 24 mph 70% 0 in 0.00 W/m2
01:25 20.7 °F 12.8 °F 30.33 in North 14 mph 24 mph 71% 0 in 0.00 W/m2
01:30 20.7 °F 12.5 °F 30.33 in North 17 mph 22 mph 70% 0 in 0.00 W/m2
01:35 20.7 °F 12.8 °F 30.33 in North 21 mph 23 mph 71% 0 in 0.00 W/m2
01:40 20.6 °F 12.4 °F 30.33 in North 20 mph 24 mph 70% 0 in 0.00 W/m2
01:45 20.5 °F 12.6 °F 30.33 in North 14 mph 24 mph 71% 0 in 0.00 W/m2
01:50 20.3 °F 13 °F 30.34 in NNW 12 mph 24 mph 73% 0 in 0.00 W/m2
01:55 20.1 °F 13.7 °F 30.34 in NNW 9 mph 24 mph 76% 0 in 0.00 W/m2
02:00 20 °F 13.6 °F 30.34 in NNW 9 mph 17 mph 76% 0 in 0.00 W/m2
02:05 19.8 °F 13.8 °F 30.34 in North 18 mph 19 mph 77% 0 in 0.00 W/m2
02:10 19.6 °F 13.9 °F 30.34 in North 13 mph 19 mph 78% 0 in 0.00 W/m2
02:15 19.5 °F 14 °F 30.34 in NNW 14 mph 18 mph 79% 0 in 0.00 W/m2
02:20 19.4 °F 14.2 °F 30.36 in NNW 11 mph 16 mph 80% 0 in 0.00 W/m2
02:25 19.3 °F 14.1 °F 30.36 in NNW 10 mph 16 mph 80% 0 in 0.00 W/m2
02:30 19.2 °F 14 °F 30.36 in North 11 mph 15 mph 80% 0 in 0.00 W/m2
02:35 19.2 °F 14 °F 30.36 in NNW 8 mph 15 mph 80% 0 in 0.00 W/m2
02:40 19.2 °F 14.3 °F 30.36 in NNW 11 mph 14 mph 81% 0 in 0.00 W/m2
02:45 19.1 °F 13.9 °F 30.35 in NNW 15 mph 16 mph 80% 0 in 0.00 W/m2
02:50 19.1 °F 13.9 °F 30.36 in NNE 13 mph 17 mph 80% 0 in 0.00 W/m2
02:55 19.1 °F 13.9 °F 30.36 in North 9 mph 17 mph 80% 0 in 0.00 W/m2
03:00 19.1 °F 13.9 °F 30.36 in North 14 mph 17 mph 80% 0 in 0.00 W/m2
03:05 19 °F 14.1 °F 30.36 in NNW 9 mph 17 mph 81% 0 in 0.00 W/m2
03:10 18.9 °F 14 °F 30.37 in NNW 9 mph 17 mph 81% 0 in 0.00 W/m2
03:15 19 °F 14.4 °F 30.36 in North 6 mph 17 mph 82% 0 in 0.00 W/m2
03:20 18.9 °F 14.3 °F 30.36 in NNW 8 mph 17 mph 82% 0 in 0.00 W/m2
03:25 18.9 °F 14.3 °F 30.36 in NNW 8 mph 14 mph 82% 0 in 0.00 W/m2
03:30 18.9 °F 14.6 °F 30.36 in North 12 mph 14 mph 83% 0 in 0.00 W/m2
03:35 18.9 °F 14.6 °F 30.36 in North 8 mph 14 mph 83% 0 in 0.00 W/m2
03:40 18.8 °F 14.8 °F 30.36 in NNW 11 mph 14 mph 84% 0 in 0.00 W/m2
03:45 18.6 °F 14.6 °F 30.36 in North 8 mph 14 mph 84% 0 in 0.00 W/m2
03:50 18.6 °F 14.8 °F 30.36 in North 8 mph 14 mph 85% 0 in 0.00 W/m2
03:55 18.5 °F 14.7 °F 30.36 in North 12 mph 14 mph 85% 0 in 0.00 W/m2
04:00 18.4 °F 14.6 °F 30.36 in North 11 mph 14 mph 85% 0 in 0.00 W/m2
04:05 18.3 °F 14.8 °F 30.35 in North 13 mph 14 mph 86% 0 in 0.00 W/m2
04:10 18.2 °F 14.4 °F 30.36 in NNW 6 mph 15 mph 85% 0 in 0.00 W/m2
04:15 18.1 °F 14.6 °F 30.36 in North 10 mph 15 mph 86% 0 in 0.00 W/m2
04:20 18 °F 14.5 °F 30.36 in North 8 mph 14 mph 86% 0 in 0.00 W/m2
04:25 18 °F 14.5 °F 30.36 in North 6 mph 14 mph 86% 0 in 0.00 W/m2
04:30 18 °F 14.8 °F 30.36 in North 8 mph 14 mph 87% 0 in 0.00 W/m2
04:35 18 °F 14.8 °F 30.36 in North 8 mph 11 mph 87% 0 in 0.00 W/m2
04:40 17.8 °F 14.3 °F 30.36 in NNW 10 mph 16 mph 86% 0 in 0.00 W/m2
04:45 17.7 °F 14.2 °F 30.37 in North 10 mph 16 mph 86% 0 in 0.00 W/m2
04:50 17.6 °F 14.1 °F 30.36 in North 9 mph 16 mph 86% 0 in 0.00 W/m2
04:55 17.5 °F 14.3 °F 30.36 in North 8 mph 16 mph 87% 0 in 0.00 W/m2
05:00 17.5 °F 14.3 °F 30.37 in North 8 mph 16 mph 87% 0 in 0.00 W/m2
05:05 17.5 °F 14.3 °F 30.37 in North 5 mph 11 mph 87% 0 in 0.00 W/m2
05:10 17.4 °F 14.2 °F 30.39 in NNW 10 mph 11 mph 87% 0 in 0.00 W/m2
05:15 17.3 °F 14.1 °F 30.39 in North 11 mph 12 mph 87% 0 in 0.00 W/m2
05:20 17.3 °F 14.1 °F 30.38 in North 10 mph 12 mph 87% 0 in 0.00 W/m2
05:25 17.2 °F 14 °F 30.38 in NNW 8 mph 12 mph 87% 0 in 0.00 W/m2
05:30 17.2 °F 14 °F 30.39 in NNW 6 mph 12 mph 87% 0 in 0.00 W/m2
05:35 17.2 °F 14.3 °F 30.39 in NNW 10 mph 13 mph 88% 0 in 0.00 W/m2
05:40 17.1 °F 14.2 °F 30.39 in NNW 6 mph 13 mph 88% 0 in 0.00 W/m2
05:45 17 °F 14.1 °F 30.39 in North 9 mph 13 mph 88% 0 in 0.00 W/m2
05:50 16.9 °F 14 °F 30.41 in North 11 mph 13 mph 88% 0 in 0.00 W/m2
05:55 16.9 °F 14 °F 30.41 in NW 9 mph 12 mph 88% 0 in 0.00 W/m2
06:00 16.8 °F 13.6 °F 30.41 in NNW 6 mph 13 mph 87% 0 in 0.00 W/m2
06:05 16.8 °F 13.6 °F 30.41 in NNW 9 mph 13 mph 87% 0 in 0.00 W/m2
06:10 16.8 °F 13.9 °F 30.41 in NNW 9 mph 13 mph 88% 0 in 0.00 W/m2
06:15 16.7 °F 13.8 °F 30.42 in North 9 mph 13 mph 88% 0 in 0.00 W/m2
06:20 16.6 °F 13.4 °F 30.43 in NNW 9 mph 14 mph 87% 0 in 0.00 W/m2
06:25 16.5 °F 13.3 °F 30.42 in North 9 mph 14 mph 87% 0 in 0.00 W/m2
06:30 16.5 °F 13.3 °F 30.42 in NNW 8 mph 11 mph 87% 0 in 0.00 W/m2
06:35 16.5 °F 13.3 °F 30.43 in NW 15 mph 15 mph 87% 0 in 0.00 W/m2
06:40 16.4 °F 13.2 °F 30.43 in NNW 13 mph 16 mph 87% 0 in 0.00 W/m2
06:45 16.3 °F 12.8 °F 30.43 in North 8 mph 16 mph 86% 0 in 0.00 W/m2
06:50 16.2 °F 13 °F 30.43 in NNW 8 mph 16 mph 87% 0 in 0.00 W/m2
06:55 16.1 °F 12.9 °F 30.43 in North 14 mph 16 mph 87% 0 in 0.00 W/m2
07:00 16.1 °F 12.9 °F 30.43 in North 14 mph 16 mph 87% 0 in 0.00 W/m2
07:05 16 °F 12.8 °F 30.43 in North 9 mph 16 mph 87% 0 in 0.00 W/m2
07:10 16 °F 12.8 °F 30.43 in North 9 mph 16 mph 87% 0 in 0.00 W/m2
07:15 16 °F 12.8 °F 30.43 in North 6 mph 16 mph 87% 0 in 0.00 W/m2
07:20 16.1 °F 12.9 °F 30.43 in North 6 mph 13 mph 87% 0 in 0.00 W/m2
07:25 16 °F 12.8 °F 30.43 in North 10 mph 14 mph 87% 0 in 0.00 W/m2
07:30 15.9 °F 12.7 °F 30.43 in North 9 mph 16 mph 87% 0 in 0.00 W/m2
07:35 15.9 °F 12.7 °F 30.42 in North 10 mph 16 mph 87% 0 in 0.00 W/m2
07:40 15.8 °F 12.6 °F 30.42 in North 6 mph 16 mph 87% 0 in 0.00 W/m2
07:45 15.8 °F 12.6 °F 30.42 in North 14 mph 16 mph 87% 0 in 0.00 W/m2
07:50 15.7 °F 12.5 °F 30.42 in North 12 mph 16 mph 87% 0 in 5.00 W/m2
07:55 15.7 °F 12.5 °F 30.43 in North 9 mph 16 mph 87% 0 in 9.00 W/m2
08:00 15.6 °F 12.4 °F 30.43 in North 10 mph 16 mph 87% 0 in 11.00 W/m2
08:05 15.6 °F 12.4 °F 30.43 in NNW 10 mph 16 mph 87% 0 in 11.00 W/m2
08:10 15.6 °F 12.4 °F 30.43 in NNE 8 mph 13 mph 87% 0 in 14.00 W/m2
08:15 15.6 °F 12.2 °F 30.43 in NNE 10 mph 13 mph 86% 0 in 18.00 W/m2
08:20 15.7 °F 12.3 °F 30.43 in NNE 11 mph 14 mph 86% 0 in 19.00 W/m2
08:25 15.7 °F 12.3 °F 30.44 in NNE 9 mph 14 mph 86% 0 in 19.00 W/m2
08:30 15.8 °F 12.4 °F 30.44 in North 10 mph 14 mph 86% 0 in 23.00 W/m2
08:35 15.8 °F 12.4 °F 30.45 in NNE 9 mph 14 mph 86% 0 in 28.00 W/m2
08:40 15.9 °F 12.5 °F 30.45 in NNE 11 mph 14 mph 86% 0 in 30.00 W/m2
08:45 16 °F 12.6 °F 30.46 in North 9 mph 14 mph 86% 0 in 32.00 W/m2
08:50 16 °F 12.6 °F 30.46 in North 8 mph 14 mph 86% 0 in 35.00 W/m2
08:55 16.1 °F 12.7 °F 30.46 in North 8 mph 12 mph 86% 0 in 32.00 W/m2
09:00 16.1 °F 12.7 °F 30.47 in NNE 6 mph 12 mph 86% 0 in 37.00 W/m2
09:05 16.2 °F 12.7 °F 30.48 in North 5 mph 12 mph 86% 0 in 46.00 W/m2
09:10 16.3 °F 12.8 °F 30.47 in NNE 9 mph 10 mph 86% 0 in 46.00 W/m2
09:15 16.3 °F 12.6 °F 30.47 in NNE 5 mph 11 mph 85% 0 in 49.00 W/m2
09:20 16.2 °F 12.5 °F 30.48 in NNE 7 mph 11 mph 85% 0 in 47.00 W/m2
09:25 16.2 °F 12.5 °F 30.48 in North 4 mph 11 mph 85% 0 in 51.00 W/m2
09:30 16.3 °F 12.6 °F 30.49 in NNE 9 mph 11 mph 85% 0 in 51.00 W/m2
09:35 16.2 °F 12.5 °F 30.49 in North 5 mph 11 mph 85% 0 in 53.00 W/m2
09:40 16.3 °F 12.8 °F 30.49 in NNE 5 mph 11 mph 86% 0 in 56.00 W/m2
09:45 16.4 °F 12.9 °F 30.49 in North 8 mph 11 mph 86% 0 in 54.00 W/m2
09:50 16.2 °F 12.5 °F 30.50 in NNE 7 mph 11 mph 85% 0 in 62.00 W/m2
09:55 16.2 °F 12.5 °F 30.50 in North 5 mph 11 mph 85% 0 in 62.00 W/m2
10:00 16.4 °F 12.7 °F 30.50 in North 6 mph 11 mph 85% 0 in 67.00 W/m2
10:05 16.4 °F 12.7 °F 30.50 in NW 4 mph 11 mph 85% 0 in 70.00 W/m2
10:10 16.5 °F 12.8 °F 30.50 in North 6 mph 10 mph 85% 0 in 67.00 W/m2
10:15 16.5 °F 12.8 °F 30.50 in NNE 9 mph 10 mph 85% 0 in 60.00 W/m2
10:20 16.4 °F 12.7 °F 30.51 in NNW 8 mph 10 mph 85% 0 in 63.00 W/m2
10:25 16.4 °F 12.7 °F 30.51 in NNW 4 mph 9 mph 85% 0 in 65.00 W/m2
10:30 16.1 °F 12.7 °F 30.51 in NNW 9 mph 10 mph 86% 0 in 65.00 W/m2
10:35 16.1 °F 12.4 °F 30.52 in NNW 6 mph 10 mph 85% 0 in 67.00 W/m2
10:40 16 °F 12.3 °F 30.52 in NW 9 mph 10 mph 85% 0 in 74.00 W/m2
10:45 16 °F 12.3 °F 30.52 in NNW 10 mph 11 mph 85% 0 in 88.00 W/m2
10:50 16.1 °F 12.4 °F 30.52 in North 8 mph 11 mph 85% 0 in 84.00 W/m2
10:55 16.1 °F 12.1 °F 30.53 in NW 9 mph 12 mph 84% 0 in 95.00 W/m2
11:00 16.1 °F 12.1 °F 30.53 in NNW 6 mph 12 mph 84% 0 in 90.00 W/m2
11:05 16.1 °F 12.1 °F 30.52 in NNW 10 mph 12 mph 84% 0 in 98.00 W/m2
11:10 16.1 °F 12.1 °F 30.53 in NNW 9 mph 12 mph 84% 0 in 104.00 W/m2
11:15 16 °F 12 °F 30.54 in NNW 8 mph 12 mph 84% 0 in 111.00 W/m2
11:20 16.2 °F 12.5 °F 30.54 in North 6 mph 12 mph 85% 0 in 104.00 W/m2
11:25 16.3 °F 12 °F 30.54 in NNW 5 mph 13 mph 83% 0 in 90.00 W/m2
11:30 16.2 °F 11.9 °F 30.54 in NNW 9 mph 13 mph 83% 0 in 79.00 W/m2
11:35 16.2 °F 12.2 °F 30.54 in NNW 5 mph 13 mph 84% 0 in 79.00 W/m2
11:40 16.1 °F 12.1 °F 30.54 in North 6 mph 13 mph 84% 0 in 86.00 W/m2
11:45 16.2 °F 12.2 °F 30.54 in NW 6 mph 12 mph 84% 0 in 98.00 W/m2
11:50 16 °F 12 °F 30.54 in NNW 6 mph 12 mph 84% 0 in 105.00 W/m2
11:55 16 °F 12.3 °F 30.54 in NNW 9 mph 12 mph 85% 0 in 100.00 W/m2
12:00 16 °F 12.3 °F 30.54 in NW 11 mph 12 mph 85% 0 in 116.00 W/m2
12:05 15.9 °F 11.9 °F 30.55 in NNW 6 mph 13 mph 84% 0 in 135.00 W/m2
12:10 16.1 °F 11.8 °F 30.55 in North 10 mph 14 mph 83% 0 in 130.00 W/m2
12:15 16 °F 11.7 °F 30.55 in NNW 11 mph 14 mph 83% 0 in 98.00 W/m2
12:20 16 °F 11.7 °F 30.55 in North 11 mph 15 mph 83% 0 in 109.00 W/m2
12:25 15.9 °F 11.4 °F 30.55 in NW 9 mph 15 mph 82% 0 in 121.00 W/m2
12:30 15.8 °F 11.3 °F 30.55 in North 10 mph 15 mph 82% 0 in 111.00 W/m2
12:35 15.9 °F 11.1 °F 30.55 in North 13 mph 15 mph 81% 0 in 134.00 W/m2
12:40 16 °F 11.2 °F 30.55 in NNW 9 mph 15 mph 81% 0 in 165.00 W/m2
12:45 16.3 °F 11.5 °F 30.55 in NNW 9 mph 15 mph 81% 0 in 167.00 W/m2
12:50 16.4 °F 11.6 °F 30.56 in NNW 13 mph 14 mph 81% 0 in 128.00 W/m2
12:55 16.4 °F 11.3 °F 30.56 in North 12 mph 14 mph 80% 0 in 167.00 W/m2
13:00 16.7 °F 11.9 °F 30.56 in NNW 6 mph 14 mph 81% 0 in 190.00 W/m2
13:05 17.1 °F 12 °F 30.56 in North 9 mph 14 mph 80% 0 in 209.00 W/m2
13:10 17.5 °F 12.4 °F 30.56 in NNW 5 mph 14 mph 80% 0 in 237.00 W/m2
13:15 17.8 °F 12.7 °F 30.56 in NNW 8 mph 12 mph 80% 0 in 255.00 W/m2
13:20 17.7 °F 12.6 °F 30.56 in NNW 9 mph 12 mph 80% 0 in 232.00 W/m2
13:25 17.4 °F 12.3 °F 30.56 in North 8 mph 12 mph 80% 0 in 163.00 W/m2
13:30 17.1 °F 12 °F 30.56 in NNW 9 mph 12 mph 80% 0 in 121.00 W/m2
13:35 16.4 °F 11.6 °F 30.56 in North 10 mph 11 mph 81% 0 in 125.00 W/m2
13:40 16.4 °F 12.1 °F 30.57 in North 8 mph 12 mph 83% 0 in 165.00 W/m2
13:45 16.6 °F 12.3 °F 30.57 in North 9 mph 12 mph 83% 0 in 162.00 W/m2
13:50 16.6 °F 12.1 °F 30.57 in North 5 mph 12 mph 82% 0 in 149.00 W/m2
13:55 16.6 °F 12.1 °F 30.57 in North 8 mph 12 mph 82% 0 in 134.00 W/m2
14:00 16.4 °F 11.6 °F 30.57 in North 10 mph 13 mph 81% 0 in 153.00 W/m2
14:05 16.4 °F 11.9 °F 30.58 in North 11 mph 15 mph 82% 0 in 142.00 W/m2
14:10 16.1 °F 11.6 °F 30.59 in North 8 mph 15 mph 82% 0 in 134.00 W/m2
14:15 16 °F 11.2 °F 30.59 in North 9 mph 15 mph 81% 0 in 104.00 W/m2
14:20 16.1 °F 11.3 °F 30.58 in North 9 mph 15 mph 81% 0 in 130.00 W/m2
14:25 16.4 °F 11.6 °F 30.59 in North 6 mph 14 mph 81% 0 in 148.00 W/m2
14:30 16.5 °F 11.1 °F 30.59 in NNE 5 mph 13 mph 79% 0 in 156.00 W/m2
14:35 16.8 °F 11.4 °F 30.59 in NNE 10 mph 13 mph 79% 0 in 156.00 W/m2
14:40 17.1 °F 11.4 °F 30.59 in North 10 mph 12 mph 78% 0 in 260.00 W/m2
14:45 17.1 °F 11.4 °F 30.59 in NNE 9 mph 12 mph 78% 0 in 320.00 W/m2
14:50 17.6 °F 12.2 °F 30.59 in NNE 7 mph 12 mph 79% 0 in 285.00 W/m2
14:55 17.5 °F 11.5 °F 30.59 in North 6 mph 13 mph 77% 0 in 332.00 W/m2
15:00 17.3 °F 11.6 °F 30.59 in NNW 11 mph 13 mph 78% 0 in 329.00 W/m2
15:05 16.7 °F 10.4 °F 30.60 in NNW 9 mph 14 mph 76% 0 in 279.00 W/m2
15:10 16.1 °F 10.2 °F 30.60 in NNW 12 mph 15 mph 77% 0 in 153.00 W/m2
15:15 15.8 °F 10.2 °F 30.60 in NNE 7 mph 15 mph 78% 0 in 132.00 W/m2
15:20 15.5 °F 10.1 °F 30.61 in North 6 mph 13 mph 79% 0 in 114.00 W/m2
15:25 15.4 °F 10.1 °F 30.61 in North 8 mph 13 mph 79% 0 in 91.00 W/m2
15:30 15 °F 9.7 °F 30.61 in NW 6 mph 14 mph 79% 0 in 86.00 W/m2
15:35 14.4 °F 10.2 °F 30.61 in NNW 12 mph 14 mph 83% 0 in 95.00 W/m2
15:40 14.2 °F 10 °F 30.62 in NNW 12 mph 18 mph 83% 0 in 84.00 W/m2
15:45 13.6 °F 8.9 °F 30.62 in NNW 16 mph 20 mph 81% 0 in 79.00 W/m2
15:50 13.3 °F 9.1 °F 30.62 in NNW 13 mph 20 mph 83% 0 in 93.00 W/m2
15:55 13 °F 8.5 °F 30.62 in NNW 11 mph 20 mph 82% 0 in 104.00 W/m2
16:00 12.8 °F 8.3 °F 30.63 in NNW 15 mph 21 mph 82% 0 in 74.00 W/m2
16:05 12.6 °F 8.1 °F 30.63 in NNW 13 mph 23 mph 82% 0 in 90.00 W/m2
16:10 12.3 °F 7.9 °F 30.63 in NNW 19 mph 23 mph 82% 0 in 91.00 W/m2
16:15 12.1 °F 7.4 °F 30.64 in NNW 13 mph 23 mph 81% 0 in 86.00 W/m2
16:20 12 °F 7.3 °F 30.64 in North 11 mph 23 mph 81% 0 in 83.00 W/m2
16:25 12 °F 7 °F 30.64 in NNW 14 mph 19 mph 80% 0 in 72.00 W/m2
16:30 11.9 °F 6.9 °F 30.64 in North 15 mph 19 mph 80% 0 in 60.00 W/m2
16:35 11.9 °F 6.9 °F 30.64 in NNW 9 mph 19 mph 80% 0 in 67.00 W/m2
16:40 11.9 °F 6.9 °F 30.65 in NNW 8 mph 18 mph 80% 0 in 56.00 W/m2
16:45 11.7 °F 7 °F 30.66 in NNW 8 mph 18 mph 81% 0 in 35.00 W/m2
16:50 11.6 °F 7.2 °F 30.66 in NNW 12 mph 18 mph 82% 0 in 21.00 W/m2
16:55 11.5 °F 6.8 °F 30.66 in NNW 12 mph 19 mph 81% 0 in 19.00 W/m2
17:00 11.2 °F 6.5 °F 30.66 in NW 11 mph 19 mph 81% 0 in 14.00 W/m2
17:05 11 °F 6.3 °F 30.66 in NW 11 mph 19 mph 81% 0 in 12.00 W/m2
17:10 10.7 °F 5.7 °F 30.66 in WNW 8 mph 19 mph 80% 0 in 7.00 W/m2
17:15 10.4 °F 5.5 °F 30.67 in NW 17 mph 20 mph 80% 0 in 5.00 W/m2
17:20 10.3 °F 5.4 °F 30.67 in NNW 10 mph 20 mph 80% 0 in 0.00 W/m2
17:25 10.2 °F 5.5 °F 30.67 in NNW 12 mph 21 mph 81% 0 in 0.00 W/m2
17:30 10 °F 5.1 °F 30.68 in NNW 18 mph 21 mph 80% 0 in 0.00 W/m2
17:35 9.7 °F 4.8 °F 30.68 in North 9 mph 21 mph 80% 0 in 0.00 W/m2
17:40 9.5 °F 4.3 °F 30.68 in NNW 15 mph 21 mph 79% 0 in 0.00 W/m2
17:45 9.4 °F 4.2 °F 30.68 in NNW 14 mph 21 mph 79% 0 in 0.00 W/m2
17:50 9.3 °F 4.1 °F 30.69 in NNW 13 mph 20 mph 79% 0 in 0.00 W/m2
17:55 9.2 °F 3.7 °F 30.69 in NW 10 mph 20 mph 78% 0 in 0.00 W/m2
18:00 9.2 °F 3.4 °F 30.69 in NNW 13 mph 16 mph 77% 0 in 0.00 W/m2
18:05 9.1 °F 3.4 °F 30.69 in NNW 12 mph 16 mph 77% 0 in 0.00 W/m2
18:10 9 °F 3 °F 30.70 in NNW 13 mph 16 mph 76% 0 in 0.00 W/m2
18:15 8.9 °F 2.6 °F 30.70 in NNW 11 mph 15 mph 75% 0 in 0.00 W/m2
18:20 8.6 °F 2.3 °F 30.70 in NNW 9 mph 15 mph 75% 0 in 0.00 W/m2
18:25 8.2 °F 1.9 °F 30.70 in NNW 8 mph 13 mph 75% 0 in 0.00 W/m2
18:30 8 °F 1.7 °F 30.71 in NW 6 mph 13 mph 75% 0 in 0.00 W/m2
18:35 8 °F 1.7 °F 30.71 in NNW 8 mph 13 mph 75% 0 in 0.00 W/m2
18:40 8.1 °F 1.8 °F 30.71 in NNW 5 mph 13 mph 75% 0 in 0.00 W/m2
18:45 8.1 °F 1.8 °F 30.71 in NW 5 mph 13 mph 75% 0 in 0.00 W/m2
18:50 8 °F 1.7 °F 30.71 in NW 4 mph 12 mph 75% 0 in 0.00 W/m2
18:55 7.9 °F 1.6 °F 30.71 in NW 4 mph 12 mph 75% 0 in 0.00 W/m2
19:00 7.9 °F 1.6 °F 30.72 in NW 4 mph 8 mph 75% 0 in 0.00 W/m2
19:05 7.9 °F 1.6 °F 30.72 in WNW 5 mph 8 mph 75% 0 in 0.00 W/m2
19:10 7.9 °F 1.9 °F 30.72 in NW 3 mph 7 mph 76% 0 in 0.00 W/m2
19:15 7.8 °F 1.8 °F 30.72 in NW 5 mph 7 mph 76% 0 in 0.00 W/m2
19:20 7.7 °F 1.7 °F 30.73 in NW 5 mph 9 mph 76% 0 in 0.00 W/m2
19:25 7.8 °F 2.1 °F 30.73 in NW 4 mph 9 mph 77% 0 in 0.00 W/m2
19:30 7.7 °F 2 °F 30.73 in WNW 7 mph 9 mph 77% 0 in 0.00 W/m2
19:35 7.9 °F 2.2 °F 30.74 in WNW 7 mph 9 mph 77% 0 in 0.00 W/m2
19:40 7.9 °F 2.2 °F 30.74 in WNW 5 mph 9 mph 77% 0 in 0.00 W/m2
19:45 8 °F 2.6 °F 30.74 in WNW 7 mph 9 mph 78% 0 in 0.00 W/m2
19:50 8.3 °F 2.9 °F 30.75 in WNW 5 mph 10 mph 78% 0 in 0.00 W/m2
19:55 8.6 °F 3.1 °F 30.75 in NW 5 mph 11 mph 78% 0 in 0.00 W/m2
20:00 8.8 °F 3.3 °F 30.75 in NW 6 mph 11 mph 78% 0 in 0.00 W/m2
20:05 9 °F 3.5 °F 30.75 in NW 8 mph 11 mph 78% 0 in 0.00 W/m2
20:10 9.2 °F 4 °F 30.75 in NW 7 mph 11 mph 79% 0 in 0.00 W/m2
20:15 9.4 °F 4.2 °F 30.76 in WNW 9 mph 11 mph 79% 0 in 0.00 W/m2
20:20 9.6 °F 4.1 °F 30.76 in NNW 12 mph 14 mph 78% 0 in 0.00 W/m2
20:25 9.7 °F 4.2 °F 30.76 in NNW 10 mph 15 mph 78% 0 in 0.00 W/m2
20:30 9.7 °F 4.2 °F 30.77 in NW 8 mph 15 mph 78% 0 in 0.00 W/m2
20:35 9.7 °F 4.2 °F 30.77 in NW 9 mph 15 mph 78% 0 in 0.00 W/m2
20:40 9.7 °F 4.2 °F 30.77 in NW 11 mph 15 mph 78% 0 in 0.00 W/m2
20:45 9.8 °F 3.7 °F 30.77 in NW 8 mph 15 mph 76% 0 in 0.00 W/m2
20:50 9.8 °F 3.2 °F 30.77 in NNW 15 mph 18 mph 74% 0 in 0.00 W/m2
20:55 9.8 °F 3.5 °F 30.78 in NW 11 mph 19 mph 75% 0 in 0.00 W/m2
21:00 9.6 °F 3.3 °F 30.78 in NW 15 mph 19 mph 75% 0 in 0.00 W/m2
21:05 9.6 °F 3 °F 30.78 in NW 20 mph 24 mph 74% 0 in 0.00 W/m2
21:10 9.2 °F 2 °F 30.78 in NW 15 mph 24 mph 72% 0 in 0.00 W/m2
21:15 8.8 °F 1.6 °F 30.79 in NW 15 mph 24 mph 72% 0 in 0.00 W/m2
21:20 8.4 °F 1.2 °F 30.79 in NNW 15 mph 24 mph 72% 0 in 0.00 W/m2
21:25 7.9 °F 0.7 °F 30.79 in NNW 14 mph 21 mph 72% 0 in 0.00 W/m2
21:30 7.5 °F 0.4 °F 30.79 in NW 12 mph 21 mph 72% 0 in 0.00 W/m2
21:35 7.1 °F 0.3 °F 30.80 in NNW 11 mph 21 mph 73% 0 in 0.00 W/m2
21:40 6.8 °F 0 °F 30.80 in NNW 10 mph 16 mph 73% 0 in 0.00 W/m2
21:45 6.6 °F -0.2 °F 30.80 in NW 11 mph 16 mph 73% 0 in 0.00 W/m2
21:50 6.7 °F 0.2 °F 30.80 in NW 8 mph 16 mph 74% 0 in 0.00 W/m2
21:55 6.6 °F 0.1 °F 30.80 in NW 9 mph 15 mph 74% 0 in 0.00 W/m2
22:00 6.5 °F 0 °F 30.80 in NW 10 mph 14 mph 74% 0 in 0.00 W/m2
22:05 6.8 °F 0.3 °F 30.80 in NW 9 mph 15 mph 74% 0 in 0.00 W/m2
22:10 6.7 °F 0.5 °F 30.81 in NW 11 mph 15 mph 75% 0 in 0.00 W/m2
22:15 6.7 °F 0.5 °F 30.80 in NW 8 mph 14 mph 75% 0 in 0.00 W/m2
22:20 6.3 °F 0.1 °F 30.81 in NW 5 mph 14 mph 75% 0 in 0.00 W/m2
22:25 5.8 °F -0.4 °F 30.81 in NW 9 mph 14 mph 75% 0 in 0.00 W/m2
22:30 5.6 °F -0.3 °F 30.81 in NNW 10 mph 14 mph 76% 0 in 0.00 W/m2
22:35 5.9 °F 0 °F 30.81 in NW 11 mph 15 mph 76% 0 in 0.00 W/m2
22:40 6 °F -0.2 °F 30.81 in NNW 13 mph 15 mph 75% 0 in 0.00 W/m2
22:45 6.1 °F -0.1 °F 30.82 in NW 11 mph 15 mph 75% 0 in 0.00 W/m2
22:50 5.9 °F -0.3 °F 30.81 in NNW 8 mph 16 mph 75% 0 in 0.00 W/m2
22:55 5.5 °F -0.7 °F 30.82 in NNW 11 mph 16 mph 75% 0 in 0.00 W/m2
23:00 5.1 °F -1.1 °F 30.82 in North 9 mph 14 mph 75% 0 in 0.00 W/m2
23:05 4.8 °F -1.4 °F 30.82 in NNW 8 mph 14 mph 75% 0 in 0.00 W/m2
23:10 4.4 °F -1.8 °F 30.82 in NNW 11 mph 14 mph 75% 0 in 0.00 W/m2
23:15 4.2 °F -1.7 °F 30.83 in NNW 9 mph 14 mph 76% 0 in 0.00 W/m2
23:20 3.8 °F -2.1 °F 30.83 in North 8 mph 14 mph 76% 0 in 0.00 W/m2
23:25 3.6 °F -2.3 °F 30.83 in North 9 mph 14 mph 76% 0 in 0.00 W/m2
23:30 3.4 °F -2.5 °F 30.83 in NNW 10 mph 14 mph 76% 0 in 0.00 W/m2
23:35 2.9 °F -3 °F 30.84 in NNW 8 mph 11 mph 76% 0 in 0.00 W/m2
23:40 2.9 °F -2.7 °F 30.83 in NNW 6 mph 11 mph 77% 0 in 0.00 W/m2
23:45 3.1 °F -2.5 °F 30.83 in NNW 6 mph 11 mph 77% 0 in 0.00 W/m2
23:50 3.3 °F -2.3 °F 30.83 in NNW 6 mph 11 mph 77% 0 in 0.00 W/m2
23:55 3.7 °F -1.9 °F 30.84 in NW 8 mph 11 mph 77% 0 in 0.00 W/m2
Bismarck, North Dakota, USA
Compliments of Weather Underground - 4 mb